Roanoke, VA

1:34 AM EDT on April 25, 2017 (GMT -0400)
Roanoke Regional-Woodrum

Weather History for KROA - May, 2013

Change the Weather History Date:

Tuesday, May 7, 2013

  Actual Average Record
Temperature  
Mean Temperature 56 °F 62 °F  
Max Temperature 62 °F 74 °F 93 °F (1940)
Min Temperature 50 °F 51 °F 33 °F (1970)
Degree Days  
Heating Degree Days 9 4  
Month to date heating degree days 50 35  
Since 1 July heating degree days 3933 4067  
Cooling Degree Days 0 2  
Month to date cooling degree days 0 10  
Year to date cooling degree days 43 39  
Growing Degree Days 6 (Base 50)    
Moisture  
Dew Point 53 °F    
Average Humidity 82    
Maximum Humidity 100    
Minimum Humidity 64    
Precipitation  
Precipitation 0.57 in 0.12 in 0.84 in (1967)
Month to date precipitation 2.07 0.82  
Year to date precipitation 17.70 13.46  
Snow  
Snow 0.00 in - - ()
Month to date snowfall 0.0  
Since 1 July snowfall 18.3  
Snow Depth 0.00 in    
Sea Level Pressure  
Sea Level Pressure 29.93 in    
Wind  
Wind Speed 5 mph (NNE)    
Max Wind Speed 14 mph    
Max Gust Speed 18 mph    
Visibility 8 miles    
Events Rain , Thunderstorm    
T = Trace of Precipitation, MM = Missing Value Source: NWS Daily Summary

Daily Weather History Graph

Daily Weather History Graph

Search for Another Location

Airport or City:

Trip Planner

Search our weather history database for the weather conditions in past years. The results will help you decide how hot, cold, wet, or windy it might be!

Date:

Astronomy

May. 07, 2013 Rise Set
Actual Time 6:18 AM EDT 8:15 PM EDT
Civil Twilight 5:49 AM EDT 8:43 PM EDT
Nautical Twilight 5:15 AM EDT 9:18 PM EDT
Astronomical Twilight 4:37 AM EDT 9:55 PM EDT
Moon 4:48 AM EDT (5/7) 6:15 PM EDT (5/7)
Length of Visible Light 14h 53m
Length of Day
13h 56m
Waning Crescent, 5% of the Moon is Illuminated
May 7
Waning Crescent
May 9
New
May 18
First Quarter
May 25
Full
May 31
Last Quarter

Hourly Weather History & Observations

Time (EDT) Temp. Dew Point Humidity Pressure Visibility Wind Dir Wind Speed Gust Speed Precip Events Conditions
12:54 AM 57.9 °F 55.0 °F 90% 29.94 in 10.0 mi NE 3.5 mph - 0.06 in   Overcast
1:54 AM 57.0 °F 54.0 °F 89% 29.94 in 10.0 mi Calm Calm - 0.04 in   Overcast
2:54 AM 55.9 °F 54.0 °F 93% 29.92 in 10.0 mi SSW 3.5 mph - 0.01 in   Overcast
3:54 AM 55.9 °F 54.0 °F 93% 29.92 in 10.0 mi Calm Calm - 0.05 in   Overcast
4:54 AM 55.9 °F 54.0 °F 93% 29.91 in 10.0 mi NNE 6.9 mph - N/A   Overcast
5:54 AM 57.2 °F 53.6 °F 88% 29.91 in 10.0 mi NNE 11.5 mph - N/A   Overcast
6:54 AM 57.0 °F 54.0 °F 89% 29.90 in 10.0 mi NNE 8.1 mph - N/A   Mostly Cloudy
7:23 AM 55.4 °F 53.6 °F 94% 29.92 in 10.0 mi ENE 5.8 mph - 0.01 in Rain Light Rain
7:32 AM 55.4 °F 53.6 °F 94% 29.92 in 10.0 mi NNE 5.8 mph - 0.01 in Rain Light Rain
7:40 AM 55.4 °F 53.6 °F 94% 29.92 in 10.0 mi NE 5.8 mph - 0.01 in Rain Light Rain
7:54 AM 55.9 °F 54.0 °F 93% 29.91 in 10.0 mi NNE 3.5 mph - 0.02 in Rain Light Rain
8:54 AM 57.0 °F 54.0 °F 89% 29.91 in 6.0 mi North 6.9 mph - 0.03 in Rain , Thunderstorm Light Thunderstorms and Rain
9:29 AM 57.2 °F 53.6 °F 88% 29.93 in 1.8 mi NNE 9.2 mph - 0.06 in Rain , Thunderstorm Thunderstorms and Rain
9:44 AM 55.4 °F 53.6 °F 94% 29.92 in 2.0 mi NE 3.5 mph - 0.09 in Rain , Thunderstorm Light Thunderstorms and Rain
9:51 AM 55.4 °F 53.6 °F 94% 29.92 in 3.0 mi Calm Calm - 0.10 in Rain , Thunderstorm Light Thunderstorms and Rain
9:54 AM 55.9 °F 55.0 °F 97% 29.91 in 3.0 mi Calm Calm - 0.10 in Rain , Thunderstorm Light Thunderstorms and Rain
10:21 AM 57.2 °F 53.6 °F 88% 29.93 in 10.0 mi NNE 11.5 mph - 0.02 in Rain Light Rain
10:49 AM 57.2 °F 53.6 °F 88% 29.92 in 5.0 mi North 8.1 mph - 0.05 in Rain Rain
10:54 AM 57.0 °F 54.0 °F 89% 29.92 in 7.0 mi NNE 5.8 mph - 0.06 in Rain Light Rain
11:20 AM 55.4 °F 53.6 °F 94% 29.95 in 6.0 mi ENE 5.8 mph - 0.02 in Rain Rain
11:54 AM 55.0 °F 53.1 °F 93% 29.93 in 7.0 mi NNE 8.1 mph - 0.06 in Rain Light Rain
12:54 PM 55.9 °F 53.1 °F 90% 29.91 in 10.0 mi NNE 9.2 mph - 0.05 in Rain Light Rain
1:54 PM 55.9 °F 53.1 °F 90% 29.93 in 10.0 mi Calm Calm - 0.01 in   Overcast
2:54 PM 57.0 °F 52.0 °F 83% 29.92 in 10.0 mi North 6.9 mph - 0.00 in   Scattered Clouds
3:54 PM 60.1 °F 52.0 °F 75% 29.91 in 10.0 mi North 8.1 mph - N/A   Mostly Cloudy
4:54 PM 61.0 °F 52.0 °F 72% 29.89 in 10.0 mi NNE 9.2 mph - 0.00 in   Mostly Cloudy
5:54 PM 61.0 °F 48.9 °F 64% 29.91 in 10.0 mi NNE 10.4 mph - N/A   Mostly Cloudy
6:54 PM 57.0 °F 50.0 °F 77% 29.94 in 10.0 mi ENE 8.1 mph - 0.00 in Rain Light Rain
7:54 PM 55.0 °F 51.1 °F 86% 29.93 in 10.0 mi NNE 6.9 mph - 0.15 in   Mostly Cloudy
8:54 PM 54.0 °F 51.1 °F 90% 29.93 in 10.0 mi NE 4.6 mph - N/A   Scattered Clouds
9:54 PM 53.1 °F 50.0 °F 89% 29.95 in 10.0 mi Calm Calm - N/A   Scattered Clouds
10:41 PM 51.8 °F 48.2 °F 88% 29.97 in 5.0 mi West 3.5 mph - N/A   Scattered Clouds
10:54 PM 51.1 °F 48.9 °F 92% 29.96 in 5.0 mi WNW 3.5 mph - N/A   Scattered Clouds
11:54 PM 52.0 °F 48.9 °F 89% 29.95 in 10.0 mi Calm Calm - N/A   Mostly Cloudy